[[{"header":{"parameterUnit":"m.s-1","parameterCategory":1,"la1":30.2992,"la2":30.254,"lo1":-89.0895,"lo2":-89.0443,"dy":0.0025,"dx":0.0025,"nx":19,"ny":19,"refTime":"2026-05-24T09:00:00:Z","depth":0,"parameterNumber":2,"parameterNumberName":"U-component_of_WINDS"},"data":[0,0,0,-4.9917,-4.9919,-4.9987,-4.9987,-5.008,-5.0081,0,0,0,0,0,0,0,0,0,0,0,-4.9901,-4.9902,-4.9917,-4.9919,-4.9987,-4.9987,-5.008,-5.0081,0,0,0,0,0,0,0,0,0,0,0,-4.9901,-4.9902,-4.9902,-4.9919,-4.9986,-4.9987,-5.008,-5.0026,0,0,0,0,0,0,0,0,0,0,-4.9959,-4.9948,-4.9901,-4.9903,-4.992,-4.9986,-4.9987,-5.0024,-5.003,-5.0052,0,-5.0074,0,-5.0079,-5.0088,-5.0088,0,0,0,-4.9916,-4.9943,-4.9958,-4.9903,-4.992,-4.9986,-4.9955,-5.0027,-5.0034,-5.0061,-5.0075,-5.0078,-5.0081,-5.0088,-5.0089,-5.023,-5.0231,0,0,-4.9912,-4.9915,-4.9953,-4.9963,-4.9953,-4.9953,-4.9957,-5.0031,-5.0047,-5.0075,-5.008,-5.0082,-5.0089,-5.009,-5.0229,-5.023,0,0,0,-4.9903,-4.9913,-4.9926,-4.9959,-4.9971,-4.9955,-4.996,-5.0043,-5.0047,-5.0081,-5.0083,-5.009,-5.0091,-5.0229,-5.023,-5.027,0,0,0,-4.9901,-4.9907,-4.9924,-4.9927,-4.9969,-5.0008,-4.9971,-5.0042,-5.0051,-5.0083,-5.009,-5.0092,-5.0228,-5.0229,-5.0267,-5.0288,0,0,0,-4.9895,-4.9907,-4.9918,-4.9927,-4.9956,-5.0007,-5.0015,-5.0044,-5.0052,-5.0088,-5.0092,-5.0227,-5.0229,-5.0265,-5.0283,-5.0324,0,0,0,-4.989,-4.9953,-4.9919,-4.9991,-4.9955,-5.0032,-5.0014,-5.0071,-5.0108,-5.009,-5.0228,-5.023,-5.0264,-5.0281,-5.0321,-5.0357,-5.0372,0,0,-4.9971,-4.9963,-5.0006,-4.9977,-5.006,-5.0022,-5.0111,-5.0142,-5.0143,-5.0201,-5.0205,-5.0268,-5.0283,-5.0323,-5.0466,-5.0478,0,0,0,-5.0033,-5.0063,-5.0084,-5.0119,-5.0145,-5.0168,-5.0185,-5.0196,-5.0246,-5.0174,-5.0296,-5.0304,-5.0328,-5.0344,-5.0355,-5.0374,-5.0238,-5.0238,-5.0238,-5.015,-5.0149,-5.0218,-5.0226,-5.026,-5.0278,-5.0305,-5.0324,-5.0313,-5.0342,-5.0357,-5.0444,-5.0464,-5.0472,-5.0492,-5.0379,-5.0379,-5.038,-5.038,-5.0267,-5.0308,-5.0294,-5.0355,-5.0354,-5.0407,-5.0428,-5.0418,-5.0466,-5.0432,-5.0453,-5.0412,-5.0486,-5.0503,-5.0383,-5.0382,-5.0382,-5.0382,-5.0381,-5.034,-5.0359,-5.0374,-5.0425,-5.0465,-5.0471,-5.0518,-5.0517,-5.0515,-5.0536,-5.0552,-5.0551,-5.0548,-5.0545,-5.0545,-5.0545,-5.0546,-5.0546,-5.0546,-5.0409,-5.0424,-5.0463,-5.0498,-5.052,-5.055,-5.0571,-5.0593,-5.0617,-5.0612,-5.0612,-5.0597,-5.0495,-5.0467,-5.0551,-5.055,-5.0549,-5.0549,-5.0548,-5.0521,-5.0496,-5.0557,-5.058,-5.0621,-5.066,-5.0659,-5.0705,-5.0724,-5.0747,-5.0729,-5.0655,-5.0646,-5.0637,-5.0614,-5.0731,-5.0731,-5.0731,-5.0731,-5.058,-5.0577,-5.0639,-5.0676,-5.0712,-5.0718,-5.0787,-5.0805,-5.082,-5.0831,-5.0815,-5.0786,-5.0778,-5.0773,-5.0762,-5.074,-5.0886,-5.0886,-5.0886,-5.0649,-5.0649,-5.0707,-5.0721,-5.0754,-5.0782,-5.0847,-5.0889,-5.0901,-5.0893,-5.084,-5.0833,-5.0786,-5.0771,-5.0756,-5.0738,-5.0698,0,0]},{"header":{"parameterUnit":"m.s-1","parameterCategory":1,"la1":30.2992,"la2":30.254,"lo1":-89.0895,"lo2":-89.0443,"dy":0.0025,"dx":0.0025,"nx":19,"ny":19,"refTime":"2026-05-24T09:00:00:Z","depth":0,"parameterNumber":3,"parameterNumberName":"V-component_of_WINDS"},"data":[0,0,0,5.94,5.94,5.9414,5.9414,5.9454,5.9454,0,0,0,0,0,0,0,0,0,0,0,5.9409,5.9409,5.94,5.94,5.9414,5.9414,5.9453,5.9454,0,0,0,0,0,0,0,0,0,0,0,5.9408,5.9409,5.941,5.9401,5.9414,5.9414,5.9453,5.9435,0,0,0,0,0,0,0,0,0,0,5.9418,5.9439,5.9409,5.941,5.9401,5.9414,5.9414,5.9434,5.9436,5.9457,0,5.9478,0,5.9467,5.9458,5.9458,0,0,0,5.9391,5.9437,5.9429,5.941,5.9401,5.9414,5.9405,5.9435,5.9438,5.946,5.9478,5.9479,5.9467,5.9458,5.9459,5.9607,5.9608,0,0,5.939,5.9418,5.9427,5.9431,5.943,5.9405,5.9406,5.9436,5.9458,5.9478,5.9479,5.9468,5.9459,5.9459,5.9606,5.9608,0,0,0,5.9394,5.9418,5.9409,5.943,5.9431,5.9405,5.9406,5.9457,5.9451,5.948,5.9468,5.9459,5.946,5.9605,5.9607,5.9691,0,0,0,5.9394,5.942,5.9409,5.9426,5.9431,5.9444,5.9427,5.9449,5.9452,5.9468,5.9459,5.9461,5.9604,5.9606,5.9686,5.9726,0,0,0,5.9403,5.9421,5.9428,5.9428,5.9434,5.9443,5.9439,5.9449,5.9445,5.9458,5.9461,5.9603,5.9605,5.9681,5.9718,5.9774,0,0,0,5.9422,5.9501,5.9429,5.9514,5.9434,5.9494,5.9438,5.9481,5.9502,5.946,5.9604,5.9607,5.968,5.9714,5.9769,5.9826,5.9853,0,0,5.9538,5.9516,5.9564,5.95,5.958,5.949,5.9582,5.9575,5.9551,5.959,5.9593,5.9687,5.9718,5.9773,5.9988,6.0009,0,0,0,5.961,5.9645,5.966,5.9681,5.9678,5.9679,5.9654,5.9652,5.9684,5.9576,5.9721,5.9738,5.977,5.9796,5.9814,5.9839,5.962,5.9619,5.9619,5.9814,5.9779,5.9856,5.9823,5.9845,5.982,5.9834,5.9827,5.9785,5.982,5.9831,5.9966,5.9998,6.0011,6.0038,5.9858,5.9858,5.9858,5.9859,5.9981,6.0026,5.9969,6.0023,5.9986,6.0031,6.0011,5.998,6.0017,5.9954,5.998,5.9915,6.0035,6.0057,5.9865,5.9864,5.9863,5.9862,5.9862,6.0112,6.0127,6.0123,6.0151,6.0177,6.0141,6.018,6.0145,6.0111,6.0137,6.0146,6.0145,6.014,6.0144,6.0144,6.0145,6.0145,6.0145,6.0146,6.025,6.0242,6.0279,6.0283,6.0293,6.0301,6.0278,6.0287,6.0288,6.0259,6.0259,6.0215,6.0053,6.0013,6.0153,6.0152,6.0151,6.015,6.015,6.0434,6.0387,6.0444,6.0454,6.0457,6.0486,6.044,6.0461,6.0463,6.0484,6.0434,6.032,6.0296,6.0281,6.0249,6.0441,6.0441,6.0441,6.0441,6.0545,6.0529,6.0581,6.0599,6.0613,6.0578,6.0645,6.0628,6.0603,6.0603,6.057,6.0523,6.051,6.0493,6.0474,6.0443,6.0681,6.0681,6.0681,6.0657,6.0641,6.0705,6.068,6.0679,6.068,6.0743,6.0767,6.0729,6.069,6.0602,6.0592,6.0516,6.0493,6.0453,6.0424,6.0366,0,0]}]]